Regional Weather Roundup
Issued by NWS

Home | Current Version | Previous Version | Graphics & Text | Print | Product List | Glossary On
Versions: 1 2 3 4 5 6 7 8 9 10 11 12 13 14 15 16 17 18 19 20 21 22 23 24 25 26 27 28 29 30 31 32 33 34 35 36 37 38 39 40 41 42 43 44 45 46 47 48 49 50
000
ASUS43 KLMK 180010
RWRKY
KENTUCKY REGIONAL WEATHER ROUNDUP
NATIONAL WEATHER SERVICE LOUISVILLE KY
700 PM EST WED DEC 17 2014

NOTE "FAIR" INDICATES FEW OR NO CLOUDS BELOW 12,000 FEET
WITH NO SIGNIFICANT WEATHER AND/OR OBSTRUCTIONS TO VISIBILITY.

KYZ001>023-026-027-061>063-070>075-180100-
WESTERN AND SOUTH CENTRAL KENTUCKY

CITY           SKY/WX    TMP DP  RH WIND       PRES   REMARKS
PADUCAH        MOCLDY    36  28  73 CALM      30.28F
HENDERSON      MOCLDY    30  25  80 CALM      30.31R
OWENSBORO      CLOUDY    34  26  72 NW7       30.30R WCI  28
HOPKINSVILLE   PTCLDY    37  27  67 NW5       30.28R WCI  33
BOWLING GREEN  CLEAR     36  25  64 NW5       30.28R WCI  32
GLASGOW        PTCLDY    33  26  75 CALM      30.25S
$$

KYZ024-025-028>034-038-045-046-053-180100-
NORTH CENTRAL KENTUCKY

CITY           SKY/WX    TMP DP  RH WIND       PRES   REMARKS
LOUISVILLE/SDF MOCLDY    33  24  69 W5        30.27R WCI  29
LOUISVILLE/LOU CLOUDY    33  24  69 NW7       30.27S WCI  27
FORT KNOX      CLOUDY    31  25  78 NW3       30.24S
$$

KYZ035>037-039>044-047>052-055>060-089>105-180100-
NORTHEAST KENTUCKY

CITY           SKY/WX    TMP DP  RH WIND       PRES   REMARKS
LEXINGTON      CLOUDY    32  26  78 NW8       30.24R WCI  25
COVINGTON      CLOUDY    29  21  72 W10       30.24S WCI  20
FRANKFORT      CLOUDY    32  23  69 NW6       30.24F WCI  26
$$

KYZ054-064>069-076>088-106>120-180100-
SOUTHEAST KENTUCKY

CITY           SKY/WX    TMP DP  RH WIND       PRES   REMARKS
JACKSON        CLEAR     32  25  75 VRB3      30.21R
LONDON         PTCLDY    35  26  69 CALM      30.22S
SOMERSET       PTCLDY    32  27  80 CALM      30.25F
MIDDLESBORO    MOCLDY    38  31  77 NW3       30.22R
MONTICELLO     MOCLDY    29  27  92 CALM      30.27R
$$



USA.gov is the U.S. government's official web portal to all federal, state and local government web resources and services.